Probability
6 6 3 3 0 0 0 0 0 0 0 0 0 0 0 0 0 0 0 0 0 3 6 3 3 0 3 3 0 0 0 0 0 0 0 0 0 3 0 0 0 0 0
3 3 0 0 0 0 0 0 0 0 0 0 0 0 0 0 0 0 0 0 0 0 3 3 3 3 0 0 0 0 0 0 0 0 0 0 0 0 3 0 0 0 0
0 0 0 0 0 0 0 0 0 0 0 0 0 0 0 0 0 0 0 0 0 0 0 3 3 0 3 0 0 0 0 0 0 0 0 0 0 0 0 0 0 0 0
0 0 0 0 0 0 0 0 0 0 0 0 0 0 0 0 0 0 0 0 0 0 0 0 0 0 0 0 0 3 0 0 0 0 0 3 0 0 0 0 3 3 0
0 0 0 0 0 0 0 0 0 0 0 0 0 0 0 0 0 0 0 0 0 0 0 0 0 0 0 3 3 0 3 3 0 0 0 3 3 3 0 3 3 3 0
0 0 0 0 0 0 0 0 0 0 0 0 0 0 0 0 0 0 0 0 0 0 0 0 0 0 0 0 3 0 0 0 0 0 0 3 3 3 3 3 3 0 0
0 0 0 0 0 0 0 0 0 0 0 0 0 0 0 0 0 0 0 0 0 0 0 0 0 0 0 0 0 0 0 0 0 0 0 3 3 3 3 0 0 0 0
0 0 0 0 0 0 0 0 0 0 0 0 0 0 0 0 0 0 0 0 0 0 0 0 0 0 0 0 0 0 0 0 0 0 0 0 0 0 0 0 0 0 0
0 0 0 0 0 0 0 0 0 0 0 0 0 0 0 0 0 0 0 0 0 0 0 0 0 0 0 0 0 0 0 0 0 0 0 0 0 0 0 0 0 0 0
0 0 0 0 0 0 0 0 0 0 0 0 0 0 0 0 0 0 0 0 0 0 0 0 0 0 0 0 0 0 0 0 0 0 0 0 0 0 0 0 0 0 0
0 0 0 0 0 0 0 0 0 0 0 0 0 0 0 0 0 0 0 0 0 0 0 0 0 0 0 0 0 0 0 0 0 0 0 0 0 0 0 0 0 0 0
0 0 0 0 0 0 0 0 0 0 0 0 0 0 0 0 0 0 0 0 0 0 0 0 0 0 0 0 0 0 0 0 0 0 0 0 0 0 0 0 0 0 0
0 0 0 0 0 0 0 0 0 0 0 0 0 0 0 0 0 0 0 0 0 0 0 0 0 0 0 0 0 0 0 0 0 0 0 0 0 0 0 0 0 0 0
0 0 0 0 0 0 0 0 0 0 0 0 0 0 0 0 0 0 0 0 0 0 0 0 0 0 0 0 0 0 0 0 0 0 0 0 0 0 0 0 0 0 0
0 0 0 0 0 0 0 0 0 0 0 0 0 0 0 0 0 0 0 0 0 0 0 0 0 0 0 0 0 0 0 0 0 0 0 0 0 0 0 0 0 0 0
0 0 0 0 0 0 0 0 0 0 0 0 0 0 0 0 0 0 0 0 0 0 0 0 0 0 0 0 0 0 0 0 0 0 0 0 0 0 0 0 0 0 0
0 0 0 0 0 0 0 0 0 0 0 0 0 0 0 0 0 0 0 0 0 0 0 0 0 0 0 0 0 0 0 0 0 0 0 0 0 0 0 0 0 0 0
0 0 0 0 0 0 0 0 0 0 0 0 0 0 0 0 0 0 0 0 0 0 0 0 0 0 0 0 0 0 0 0 0 0 0 0 0 0 0 0 0 0 0
0 0 0 0 0 0 0 0 0 0 0 0 0 0 0 0 0 0 0 0 0 0 0 0 0 0 0 0 0 0 0 0 0 0 0 0 0 0 0 0 0 0 0
0 0 0 0 0 0 0 0 0 0 0 0 0 0 0 0 0 0 0 0 0 0 0 0 0 0 0 0 0 0 0 0 0 0 0 0 0 0 0 0 0 0 0
0 0 0 0 0 0 0 0 0 0 0 0 0 0 0 0 0 0 0 0 0 0 0 0 0 0 0 0 0 0 0 0 0 0 0 0 0 0 0 0 0 0 0
0 0 0 0 0 0 0 0 0 0 0 0 0 0 0 0 0 0 0 0 0 0 0 0 0 0 0 0 0 0 0 0 0 0 0 0 0 0 0 0 0 0 0
0 0 0 0 0 0 0 0 0 0 0 0 0 0 0 0 0 0 0 0 0 0 0 0 0 0 0 0 0 0 0 0 0 0 0 0 0 0 0 0 0 0 0
0 0 0 0 0 0 0 0 0 0 0 0 0 0 0 0 0 0 0 0 0 0 0 0 0 0 0 0 0 0 0 0 0 0 0 0 0 0 0 0 0 0 0
0 0 0 0 0 0 0 0 0 0 0 0 0 0 0 0 0 0 0 0 0 0 0 0 0 0 0 0 0 0 0 0 0 0 0 0 0 0 0 0 0 0 0
0 0 0 0 0 0 0 0 0 0 0 0 0 0 0 0 0 0 0 0 0 0 0 0 0 0 0 0 0 0 0 0 0 0 0 0 0 0 0 0 0 0 0
Height
5817 5819 5820 5822 5823 5824 5825 5825 5826 5826 5826 5826 5825 5825 5824 5823 5822 5821 5820 5819 5817 5815 5814 5812 5810 5808 5806 5804 5801 5799 5797 5794 5792 5789 5787 5784 5782 5779 5776 5773 5770 5768 5765
5810 5812 5814 5815 5816 5817 5819 5819 5820 5820 5820 5820 5819 5819 5818 5817 5816 5815 5814 5812 5811 5809 5807 5805 5803 5801 5799 5797 5795 5792 5790 5787 5785 5782 5779 5776 5774 5770 5767 5764 5761 5758 5756
5803 5805 5807 5809 5810 5811 5812 5813 5813 5813 5813 5813 5813 5812 5811 5811 5810 5808 5807 5806 5804 5803 5801 5799 5797 5795 5793 5790 5788 5785 5783 5780 5777 5774 5771 5768 5765 5762 5759 5755 5752 5749 5745
5796 5798 5800 5802 5803 5804 5805 5806 5807 5807 5807 5807 5806 5806 5805 5804 5803 5802 5800 5799 5798 5796 5794 5792 5790 5788 5786 5783 5780 5778 5775 5772 5769 5766 5763 5760 5756 5753 5749 5746 5742 5738 5734
5789 5791 5793 5795 5796 5797 5798 5799 5800 5800 5800 5800 5799 5798 5798 5797 5796 5795 5793 5792 5790 5789 5787 5785 5783 5781 5778 5776 5773 5770 5767 5764 5761 5758 5754 5751 5747 5743 5740 5736 5732 5727 5723
5781 5784 5786 5787 5789 5790 5791 5792 5793 5793 5792 5792 5792 5791 5790 5789 5788 5787 5786 5784 5783 5781 5779 5778 5775 5773 5771 5768 5765 5762 5759 5756 5752 5749 5745 5741 5737 5733 5729 5725 5720 5716 5711
5773 5776 5778 5780 5781 5783 5784 5784 5785 5785 5785 5785 5784 5784 5783 5782 5781 5780 5778 5777 5775 5774 5772 5770 5767 5765 5763 5760 5757 5754 5750 5747 5743 5739 5735 5731 5727 5722 5718 5714 5709 5705 5700
5765 5768 5770 5772 5773 5775 5775 5776 5777 5777 5777 5777 5777 5776 5776 5775 5773 5772 5771 5769 5767 5766 5764 5762 5759 5757 5754 5751 5748 5745 5742 5738 5734 5729 5725 5721 5716 5712 5707 5702 5698 5692 5687
5757 5760 5762 5764 5765 5766 5767 5768 5768 5769 5769 5769 5768 5768 5768 5767 5767 5766 5763 5762 5760 5758 5756 5753 5751 5748 5746 5743 5740 5736 5733 5729 5724 5719 5715 5710 5705 5700 5695 5690 5685 5680 5674
5749 5751 5753 5755 5756 5758 5759 5760 5760 5760 5760 5760 5760 5759 5759 5759 5758 5758 5756 5754 5752 5750 5747 5745 5742 5740 5737 5734 5730 5727 5723 5719 5714 5709 5704 5699 5694 5688 5683 5677 5672 5666 5661
5740 5743 5745 5747 5748 5750 5751 5751 5752 5752 5752 5752 5751 5751 5750 5750 5749 5749 5748 5747 5744 5742 5739 5736 5733 5730 5728 5724 5721 5717 5713 5709 5704 5698 5693 5688 5682 5676 5670 5664 5658 5653 5648
5732 5735 5737 5738 5740 5742 5742 5743 5743 5743 5743 5743 5743 5743 5742 5742 5741 5740 5739 5738 5737 5734 5731 5728 5725 5721 5718 5715 5711 5707 5702 5698 5693 5687 5682 5676 5670 5664 5657 5651 5646 5640 5634
5724 5726 5728 5730 5732 5733 5734 5734 5735 5735 5735 5735 5735 5734 5734 5733 5732 5731 5730 5729 5728 5727 5723 5720 5716 5712 5709 5705 5701 5696 5692 5687 5681 5676 5670 5664 5658 5651 5645 5638 5632 5626 5620
5715 5718 5720 5722 5723 5725 5726 5726 5726 5726 5727 5726 5726 5726 5725 5724 5723 5722 5721 5720 5719 5718 5715 5712 5707 5703 5699 5695 5691 5686 5680 5675 5670 5664 5657 5651 5645 5638 5632 5625 5619 5613 5606
5707 5710 5712 5713 5715 5716 5718 5718 5718 5718 5718 5718 5718 5718 5717 5716 5715 5713 5712 5710 5709 5708 5707 5703 5699 5694 5689 5685 5680 5675 5669 5664 5658 5652 5645 5639 5633 5626 5620 5613 5607 5600 5594
5699 5701 5703 5705 5707 5708 5709 5710 5710 5710 5710 5710 5710 5710 5709 5708 5706 5705 5703 5701 5699 5697 5696 5693 5689 5684 5679 5674 5669 5664 5658 5652 5646 5640 5633 5627 5621 5614 5608 5601 5595 5589 5583
5690 5693 5695 5696 5698 5700 5701 5701 5701 5702 5702 5702 5702 5701 5700 5699 5698 5697 5695 5693 5690 5688 5686 5684 5679 5674 5669 5664 5658 5652 5646 5640 5634 5628 5621 5615 5609 5603 5597 5590 5584 5578 5572
5681 5684 5686 5688 5690 5691 5692 5693 5693 5693 5694 5693 5693 5692 5692 5691 5689 5688 5686 5684 5681 5678 5676 5673 5669 5664 5659 5653 5648 5642 5635 5629 5623 5616 5610 5604 5598 5592 5586 5580 5574 5568 5562
5672 5675 5677 5679 5681 5682 5683 5684 5685 5685 5685 5684 5684 5684 5683 5682 5680 5679 5677 5675 5672 5669 5666 5663 5659 5654 5648 5642 5637 5631 5625 5618 5612 5606 5600 5594 5588 5582 5575 5569 5563 5558 5552
5663 5666 5668 5670 5672 5673 5674 5675 5675 5676 5676 5675 5675 5674 5674 5673 5671 5670 5668 5666 5663 5660 5656 5652 5648 5643 5638 5632 5626 5621 5616 5609 5602 5596 5590 5583 5578 5571 5565 5559 5554 5549 5544
5654 5656 5659 5661 5663 5664 5665 5666 5666 5667 5667 5666 5666 5665 5665 5664 5662 5661 5659 5656 5653 5650 5646 5642 5638 5633 5628 5622 5617 5611 5605 5599 5593 5587 5581 5575 5568 5562 5556 5550 5545 5540 5535
5645 5647 5650 5652 5654 5655 5656 5656 5657 5658 5658 5658 5657 5657 5656 5655 5653 5651 5649 5646 5643 5640 5636 5633 5628 5623 5618 5612 5606 5600 5594 5590 5585 5579 5572 5566 5559 5553 5547 5542 5537 5533 5528
5636 5638 5640 5642 5644 5646 5647 5648 5648 5649 5649 5649 5649 5648 5647 5646 5644 5642 5640 5637 5633 5629 5626 5622 5618 5613 5608 5602 5597 5591 5585 5579 5574 5568 5562 5557 5550 5544 5539 5534 5530 5526 5521
5626 5629 5631 5633 5635 5636 5637 5638 5639 5640 5640 5640 5640 5640 5639 5637 5635 5633 5631 5628 5625 5621 5617 5613 5608 5603 5598 5592 5586 5581 5576 5571 5565 5559 5553 5549 5543 5537 5532 5527 5523 5519 5515
5617 5619 5622 5624 5626 5627 5628 5629 5630 5631 5631 5631 5631 5631 5630 5628 5626 5624 5623 5620 5617 5613 5608 5603 5598 5593 5588 5583 5577 5573 5568 5563 5558 5552 5546 5541 5536 5531 5526 5521 5517 5512 5508
5607 5610 5612 5615 5616 5618 5619 5620 5621 5623 5623 5623 5622 5622 5620 5619 5617 5615 5613 5611 5608 5604 5600 5595 5590 5585 5579 5574 5569 5565 5560 5555 5550 5545 5539 5534 5529 5525 5522 5517 5511 5507 5502
Wind_Speed
30 29 29 28 27 28 27 27 27 27 27 27 28 28 28 28 28 28 29 29 30 30 31 31 31 32 32 32 33 33 33 34 34 34 35 36 37 37 37 38 38 38 38
31 31 30 30 29 29 29 29 29 29 29 29 29 30 30 30 30 30 30 30 31 31 31 31 32 32 33 33 34 34 34 35 35 36 37 37 38 38 38 39 39 40 40
32 32 31 31 31 31 31 30 30 30 30 30 31 31 31 31 31 31 31 31 31 31 32 32 32 33 33 34 34 35 35 36 36 37 38 38 39 39 39 40 40 41 42
34 33 33 33 32 32 32 31 31 31 31 31 32 32 32 32 32 32 32 32 32 32 32 33 33 33 34 35 35 36 36 37 38 38 39 40 40 40 41 42 43 43 44
35 35 34 34 33 33 33 32 32 32 32 32 33 33 33 33 33 32 32 32 32 33 33 33 34 34 35 36 36 37 38 38 39 40 41 41 41 42 43 44 45 46 46
36 36 35 34 34 33 33 33 33 33 34 34 33 34 33 33 33 33 33 33 34 34 34 35 35 36 36 37 38 38 39 40 41 42 43 43 43 44 45 46 47 47 48
38 37 37 36 36 35 35 34 35 34 35 35 35 35 34 34 34 34 34 34 34 35 35 36 36 37 38 38 39 39 40 41 42 43 44 45 45 46 46 47 48 49 49
40 39 38 37 37 37 36 36 36 36 36 36 36 35 35 35 35 34 34 34 35 35 36 36 37 38 38 39 40 40 41 42 43 44 45 46 46 47 48 49 50 51 51
40 39 38 38 38 38 37 36 36 37 37 37 37 36 36 35 35 34 34 35 36 36 36 37 37 38 39 40 40 41 42 43 44 45 46 46 47 49 50 51 51 52 52
40 39 39 38 38 37 37 37 37 37 37 37 37 37 37 37 36 35 35 36 36 36 37 38 38 39 40 40 41 42 43 45 46 47 47 48 49 50 51 51 52 52 51
40 39 39 38 37 37 36 37 37 37 37 37 37 37 37 37 37 36 36 35 36 37 38 39 40 40 41 42 43 44 45 46 48 48 49 50 51 52 53 53 53 52 52
39 39 39 39 38 37 36 36 37 37 38 38 37 38 37 37 37 37 36 36 36 37 38 39 40 41 42 43 44 45 46 48 48 49 50 51 53 53 53 52 52 53 53
38 38 39 39 39 38 37 36 36 36 38 38 38 37 37 37 37 37 37 37 37 37 38 39 41 42 43 44 45 47 48 49 49 50 51 52 53 53 52 53 53 54 53
39 40 39 38 38 39 38 37 36 37 38 38 37 37 37 37 37 37 38 38 38 38 39 40 41 43 44 45 46 48 49 49 50 51 52 53 53 53 52 53 53 52 51
39 39 40 40 39 38 37 36 36 37 37 37 37 36 36 37 37 37 38 39 39 39 39 41 42 43 45 46 47 48 49 49 51 52 52 52 52 52 51 50 50 49 48
39 39 39 39 39 38 38 37 36 37 36 36 36 36 36 36 35 36 37 39 39 40 40 41 42 44 45 46 48 49 50 51 52 51 52 51 51 50 49 48 48 48 46
40 38 38 38 37 37 37 37 37 36 36 37 37 37 37 36 37 37 38 39 39 40 41 41 43 45 46 48 48 50 50 50 50 51 51 50 49 48 48 47 47 46 45
40 39 38 37 38 37 36 37 37 37 37 37 37 36 37 37 38 38 38 39 40 41 42 42 44 46 47 48 49 49 49 49 49 49 48 48 47 47 47 46 45 44 43
40 39 38 38 37 37 37 37 37 37 37 37 37 37 37 37 37 38 39 40 41 41 42 43 45 46 47 48 48 47 48 49 48 48 47 47 46 46 46 45 43 42 40
41 40 38 38 37 37 37 38 37 37 37 36 36 37 37 37 37 38 39 40 41 42 43 44 46 46 46 46 47 47 47 47 46 46 46 46 46 45 44 42 41 39 38
40 40 39 39 38 37 37 37 37 37 37 36 36 36 36 37 37 38 39 40 41 42 43 44 45 45 45 45 46 46 46 45 44 44 45 45 45 43 42 40 39 37 35
40 39 39 38 38 37 36 36 37 37 36 36 36 36 35 36 37 38 39 40 42 42 43 43 44 44 45 45 45 45 44 43 42 42 43 43 42 40 39 37 36 34 32
39 39 38 38 38 38 37 36 36 37 37 36 36 35 35 36 37 38 39 40 41 42 43 43 43 44 44 44 43 42 42 42 42 41 40 39 38 37 35 35 33 31 31
39 38 37 37 37 37 37 36 36 36 36 36 36 36 36 38 38 38 39 39 40 41 42 42 43 43 43 42 42 41 41 41 40 39 38 37 35 34 33 32 31 30 30
39 38 37 37 36 36 36 36 36 36 35 35 36 36 37 38 38 39 38 38 39 41 42 42 42 42 42 41 40 40 40 39 37 37 36 34 33 32 31 30 30 29 29
39 39 38 37 37 37 36 36 35 35 35 35 35 36 36 37 37 38 37 38 39 40 41 41 41 40 40 39 39 39 39 37 35 34 33 32 31 30 28 27 27 28 27
Wind_Direction
251 254 257 261 265 267 270 272 274 278 280 281 282 284 286 287 287 289 290 292 293 294 295 296 296 297 298 298 298 298 298 299 299 299 299 300 300 299 298 297 296 295 294
251 254 257 260 263 267 270 272 274 277 279 281 282 284 285 286 287 288 289 291 293 294 295 296 296 297 297 298 298 299 299 299 299 299 299 300 300 299 299 298 296 295 294
251 254 257 260 263 267 270 272 274 276 279 280 282 284 284 285 286 287 288 289 291 293 294 296 296 297 297 298 299 299 299 299 300 300 300 300 300 300 300 299 297 296 295
251 254 257 260 263 266 270 271 273 275 278 280 282 284 285 285 286 288 288 289 290 292 293 295 295 296 297 298 298 299 299 299 300 300 300 300 300 300 300 299 299 298 297
251 253 256 259 262 265 268 271 273 275 277 279 282 283 284 286 287 287 288 289 290 291 292 293 294 296 297 297 298 298 298 299 299 300 300 300 300 300 300 300 300 299 298
250 253 256 259 262 265 269 271 272 274 276 278 281 282 283 286 287 287 288 289 290 291 292 293 294 295 296 297 298 298 299 300 300 300 300 300 300 300 300 301 300 300 300
250 252 255 259 262 264 268 271 271 272 275 278 279 281 283 285 286 287 287 288 290 291 292 293 294 295 296 297 298 299 300 301 301 301 301 301 301 301 301 301 301 301 300
250 253 255 258 262 264 266 270 271 272 274 276 279 280 282 284 285 286 287 288 290 291 292 293 294 295 297 297 298 299 300 301 301 301 302 301 301 301 302 301 301 301 300
251 253 255 258 261 264 266 268 271 272 274 276 277 279 281 282 283 284 286 287 289 291 292 294 295 296 296 297 297 299 300 301 302 303 303 302 302 302 302 302 301 301 300
251 253 256 259 261 262 266 268 270 272 274 276 277 278 280 281 283 283 284 286 289 290 292 293 295 295 296 297 298 299 300 301 302 303 303 302 303 303 303 302 302 301 301
252 254 256 259 262 264 266 268 270 272 273 275 276 278 279 280 282 283 283 286 288 290 292 293 294 295 296 298 298 300 301 302 303 303 303 303 303 303 303 303 302 301 301
253 255 257 258 261 264 265 267 269 271 272 274 275 277 279 280 282 283 283 284 288 290 292 293 294 296 297 298 299 300 301 302 303 303 303 303 303 304 303 303 302 301 301
252 254 257 259 260 262 265 267 268 271 272 274 275 277 278 281 282 283 284 285 287 289 291 293 295 296 297 299 300 301 302 303 303 304 304 304 304 304 304 303 302 302 302
251 254 257 259 260 262 264 266 269 270 271 273 274 276 278 280 282 284 284 286 287 289 291 294 296 297 298 300 301 302 303 304 304 305 305 305 305 306 305 304 304 303 303
252 255 258 260 261 262 263 267 270 271 270 272 274 276 278 280 282 283 285 287 289 291 293 295 297 299 300 301 302 303 304 304 305 306 306 306 307 307 306 306 305 304 304
252 255 257 258 260 261 263 266 269 270 271 272 274 276 279 281 283 285 286 288 291 294 296 297 298 300 301 302 303 304 305 306 307 307 307 307 307 307 308 307 306 305 304
251 254 256 258 259 261 262 264 267 270 272 274 274 277 279 281 283 285 287 290 292 295 296 298 300 301 302 303 304 305 306 307 307 308 308 308 308 308 308 308 307 306 305
250 253 255 257 259 261 263 265 267 269 272 274 274 277 279 280 282 284 288 291 293 296 297 299 300 302 303 305 305 305 306 308 308 308 309 309 309 309 309 309 308 307 306
250 252 255 257 259 262 263 266 268 269 271 273 274 276 278 280 282 285 288 291 293 296 298 300 302 303 304 306 306 306 307 308 308 308 310 310 310 310 310 310 309 308 308
251 252 254 256 260 262 264 266 267 267 269 272 275 276 278 279 281 285 289 291 294 296 298 301 303 303 305 306 306 307 307 307 308 308 309 310 311 311 310 310 310 309 309
252 253 253 256 260 263 265 267 267 268 270 273 275 276 278 279 282 286 289 292 294 297 299 301 303 304 305 306 307 307 308 308 308 309 309 311 311 311 311 310 311 311 310
252 252 253 256 259 262 265 266 268 269 270 272 274 276 279 282 284 287 290 292 295 297 300 302 303 304 306 307 307 308 309 309 310 310 310 311 311 311 311 310 310 310 312
252 253 254 257 259 261 263 265 268 269 269 272 274 276 280 284 287 289 290 293 295 298 301 302 303 304 306 307 308 309 310 311 312 312 313 314 314 314 313 312 311 311 313
251 252 253 256 258 261 263 265 267 268 270 272 273 276 281 284 287 290 291 293 296 298 300 301 303 304 306 307 308 309 311 312 312 313 314 315 316 316 316 315 314 313 314
251 252 254 255 257 260 262 264 266 267 270 272 275 278 281 284 287 289 291 294 296 298 300 301 303 305 306 307 308 309 311 312 313 313 314 315 316 317 317 316 317 316 317
250 252 253 255 257 260 262 263 265 268 270 273 277 280 283 285 287 289 291 294 296 298 299 301 302 304 306 307 307 309 312 313 313 314 315 316 317 318 319 318 317 318 320